This demonstration page uses our WeatherBlox Daily Observations layout. Learn more.

Left ArrowRight Arrow

36.17497, -115.13722

Hourly Observations for November 21, 2020

Temp ( °F °C ) Dew Point ( °F °C ) Humidity (%) Winds ( mph kmh ) Pressure ( in mb ) Visibility ( mi km ) Precip ( " mm )
12:53 am 00:53 Clear 56 13.3 29 -1.7 36 36 WNW 6 9 30.17 1022 10 16 0.00 0.00
1:53 am 01:53 Clear 57 13.9 25 -3.9 29 29 NW 5 7 30.17 1022 10 16 0.00 0.00
2:53 am 02:53 Clear 57 13.9 23 -5 27 27 WNW 14 22 30.17 1022 10 16 0.00 0.00
3:53 am 03:53 Clear 55 12.8 24 -4.4 30 30 NW 5 7 30.18 1022 10 16 0.00 0.00
4:53 am 04:53 Clear 54 12.2 24 -4.4 31 31 W 5 7 30.19 1022 10 16 0.00 0.00
5:53 am 05:53 Clear 54 12.2 23 -5 30 30 NW 9 15 30.20 1023 10 16 0.00 0.00
6:53 am 06:53 Sunny 54 12.2 23 -5 30 30 NNW 7 11 30.22 1023 10 16 0.00 0.00
7:53 am 07:53 Sunny 57 13.9 23 -5 27 27 NW 7 11 30.24 1024 10 16 0.00 0.00
8:53 am 08:53 Sunny 62 16.7 24 -4.4 23 23 N 7 11 30.24 1024 10 16 0.00 0.00
9:53 am 09:53 Sunny 64 17.8 25 -3.9 23 23 NNE 3 6 30.23 1024 10 16 0.00 0.00
10:53 am 10:53 Sunny 65 18.3 25 -3.9 22 22 S 7 11 30.21 1023 10 16 0.00 0.00
11:53 am 11:53 Sunny 67 19.4 24 -4.4 20 20 Calm 30.18 1022 10 16 0.00 0.00
12:53 pm 12:53 Sunny 69 20.6 24 -4.4 18 18 E 3 6 30.16 1022 10 16 0.00 0.00
1:53 pm 13:53 Sunny 71 21.7 24 -4.4 17 17 Calm 30.14 1021 10 16 0.00 0.00
2:53 pm 14:53 Sunny 70 21.1 24 -4.4 18 18 Calm 30.12 1020 10 16 0.00 0.00
3:53 pm 15:53 Sunny 70 21.1 23 -5 17 17 Calm 30.12 1020 10 16 0.00 0.00
4:53 pm 16:53 Clear 68 20 24 -4.4 19 19 Calm 30.12 1020 10 16 0.00 0.00
5:53 pm 17:53 Clear 64 17.8 27 -2.8 25 25 WNW 6 9 30.14 1021 10 16 0.00 0.00
6:53 pm 18:53 Clear 61 16.1 28 -2.2 29 29 WNW 7 11 30.14 1021 10 16 0.00 0.00
7:53 pm 19:53 Clear 61 16.1 27 -2.8 27 27 Calm 30.14 1021 10 16 0.00 0.00
8:53 pm 20:53 Clear 58 14.4 28 -2.2 32 32 WNW 6 9 30.14 1021 10 16 0.00 0.00
9:53 pm 21:53 Clear 56 13.3 28 -2.2 34 34 W 3 6 30.14 1021 10 16 0.00 0.00
10:53 pm 22:53 Clear 55 12.8 27 -2.8 34 34 Calm 30.13 1020 10 16 0.00 0.00
11:53 pm 23:53 Clear 55 12.8 26 -3.3 33 33 NW 7 11 30.13 1020 10 16 0.00 0.00

Powered by AerisWeather